Location: Waverly
(39.3325°N, 76.6061°W)
Time: 08:39:24
(UTC+00:00)

ARIANE 6 FM1 Upper Stage - Pass Details

Date: 13 December 2025
Orbit: 522 x 610 km, 62.0° (Epoch: 14 January)

Event Time Altitude Azimuth Distance (km) Brightness Sun altitude
Rises 11:17:57 0° 202° (SSW) 2,704 6.1 -11.3°
Reaches altitude 10° 11:20:12 10° 197° (SSW) 1,801 5.3 -10.9°
Maximum altitude 11:24:08 51° 121° (ESE) 674 3.5 -10.2°
Drops below altitude 10° 11:28:00 10° 45° (NE) 1,775 5.5 -9.5°
Sets 11:30:13 0° 41° (NE) 2,661 6.4 -9.1°
